Location: Peebles
(55.6412°N, 3.1714°W)
Time: 00:15:52
(UTC+00:00)

Cosmos 2123 Rocket - Visible Passes

Search period start: 28 January 2022 00:00
Search period end: 07 February 2022 00:00
Orbit: 961 x 992 km, 82.9° (Epoch: 27 January)

Date Brightness Start Highest point End Pass type
(mag) Time Alt. Az. Time Alt. Az. Time Alt. Az.
28 Jan 6.6 04:36:46 10° NNE 04:40:04 14° NE 04:43:22 10° ENE visible
28 Jan 4.9 06:21:04 10° N 06:27:10 50° ENE 06:33:17 10° SE visible
28 Jan 6.0 20:10:36 14° NNE 20:10:36 14° NNE 20:11:28 10° NNE visible
28 Jan 6.2 21:55:13 17° N 21:55:13 17° N 21:56:46 10° N visible
29 Jan 6.3 05:01:53 10° N 05:06:32 21° NE 05:11:10 10° ESE visible
29 Jan 4.2 06:46:45 10° N 06:53:04 77° ENE 06:59:24 10° SSE visible
29 Jan 5.9 18:50:30 12° NNE 18:50:30 12° NNE 18:51:01 10° NNE visible
29 Jan 5.6 20:35:06 23° N 20:35:06 23° N 20:37:17 10° N visible
29 Jan 6.2 22:19:41 18° NNW 22:19:41 18° NNW 22:22:13 10° N visible
30 Jan 5.8 05:27:18 10° N 05:32:48 31° ENE 05:38:18 10° ESE visible
30 Jan 4.0 07:12:32 10° NNW 07:18:48 70° W 07:25:04 10° S visible
30 Jan 5.1 19:06:04 10° SSE 19:14:12 26° NE 19:17:14 10° NNE visible
30 Jan 4.9 20:50:48 10° SSW 20:58:40 41° NNW 21:03:00 10° N visible
30 Jan 6.4 22:43:05 15° NW 22:43:52 15° NW 22:47:24 10° NNW visible
31 Jan 6.7 04:08:47 10° NNE 04:11:40 13° NE 04:14:33 10° ENE visible
31 Jan 5.1 05:52:52 10° N 05:58:54 46° ENE 06:04:57 10° SE visible
31 Jan 5.5 17:50:27 10° E 17:53:03 13° ENE 17:55:39 10° NE visible
31 Jan 3.9 19:31:05 10° S 19:37:07 57° E 19:43:13 10° NNE visible
31 Jan 5.3 21:17:14 10° SW 21:22:53 36° WNW 21:28:37 10° N visible
31 Jan 6.8 23:09:21 10° NW 23:10:28 10° NW 23:11:36 10° NNW visible
01 Feb 6.4 04:33:47 10° N 04:38:10 19° NE 04:42:34 10° E visible
01 Feb 4.4 06:18:31 10° N 06:24:50 70° ENE 06:31:09 10° SSE visible
01 Feb 5.0 18:13:46 10° ESE 18:18:11 21° ENE 18:22:38 10° NNE visible
01 Feb 3.8 19:56:34 10° S 20:02:46 88° ESE 20:09:05 10° NNE visible
01 Feb 5.9 21:44:07 10° WSW 21:49:05 24° WNW 21:54:06 10° N visible
02 Feb 5.9 04:59:08 10° N 05:04:30 28° ENE 05:09:50 10° ESE visible
02 Feb 4.0 06:44:17 10° NNW 06:50:36 77° W 06:56:55 10° S visible
02 Feb 4.6 18:38:05 10° SE 18:43:29 33° E 18:48:56 10° NNE visible
02 Feb 4.4 20:22:27 10° SSW 20:28:36 60° WNW 20:34:48 10° N visible
02 Feb 6.4 22:11:36 10° W 22:15:28 17° NW 22:19:22 10° N visible
03 Feb 6.8 03:40:51 10° NNE 03:43:15 12° NE 03:45:39 10° ENE visible
03 Feb 5.3 05:24:40 10° N 05:30:38 42° ENE 05:36:35 10° SE visible
03 Feb 4.3 07:10:10 10° NNW 07:16:13 49° W 07:22:15 10° SSW visible
03 Feb 4.1 19:02:59 10° SSE 19:08:56 51° E 19:14:59 10° NNE visible
03 Feb 5.2 20:48:48 10° SW 20:54:35 39° WNW 21:00:27 10° N visible
03 Feb 6.8 22:40:02 10° WNW 22:42:02 11° NW 22:44:03 10° NNW visible
04 Feb 6.5 04:05:41 10° N 04:09:48 18° NE 04:13:55 10° E visible
04 Feb 4.5 05:50:19 10° N 05:56:36 64° ENE 06:02:53 10° SSE visible
04 Feb 5.2 17:45:58 10° ESE 17:50:06 19° ENE 17:54:15 10° NE visible
04 Feb 3.9 19:28:21 10° S 19:34:33 80° E 19:40:51 10° NNE visible
04 Feb 5.9 21:15:34 10° WSW 21:20:44 27° WNW 21:25:58 10° N visible
05 Feb 6.0 04:30:59 10° N 04:36:10 26° ENE 04:41:20 10° ESE visible
05 Feb 4.0 06:16:04 10° NNW 06:22:24 85° W 06:28:45 10° S visible
05 Feb 4.7 18:10:07 10° SE 18:15:21 30° E 18:20:39 10° NNE visible
05 Feb 4.3 19:54:10 10° SSW 20:00:20 67° WNW 20:06:37 10° N visible
05 Feb 6.4 21:42:54 10° W 21:47:05 18° NW 21:51:18 10° N visible
06 Feb 6.9 03:13:02 10° NNE 03:14:50 11° NE 03:16:37 10° ENE visible
06 Feb 5.4 04:56:29 10° N 05:02:21 38° ENE 05:08:11 10° SE visible
06 Feb 4.1 06:41:55 10° NNW 06:48:03 55° W 06:54:11 10° SSW visible
06 Feb 4.2 18:34:54 10° SSE 18:40:46 46° E 18:46:43 10° NNE visible
06 Feb 5.1 20:20:23 10° SW 20:26:17 43° WNW 20:32:16 10° N visible
06 Feb 6.8 22:11:01 10° WNW 22:13:36 13° NW 22:16:13 10° NNW visible
